Regional Weather Roundup
Issued by NWS Cleveland, OH

Home | Current Version | Previous Version | Graphics & Text | Print | Product List | Glossary On
Versions: 1 2 3 4 5 6 7 8 9 10 11 12 13 14 15 16 17 18 19 20 21 22 23 24 25 26 27 28 29 30 31 32 33 34 35 36 37 38 39 40 41 42 43 44 45 46 47 48 49 50
000
ASUS41 KCLE 190600
RWRCLE
OHIO REGIONAL WEATHER ROUNDUP
NATIONAL WEATHER SERVICE WILMINGTON, OH
100 AM EST FRI DEC 19 2014

NOTE: "FAIR" INDICATES FEW OR NO CLOUDS BELOW 12,000 FEET WITH NO
SIGNIFICANT WEATHER AND/OR OBSTRUCTIONS TO VISIBILITY.

OHZ001>008-015>018-024>027-034-035-043-044-190700-
   NORTHWEST OHIO

CITY           SKY/WX    TMP DP  RH WIND       PRES   REMARKS
DEFIANCE       CLOUDY    29  24  82 W3        30.22S
FINDLAY        CLOUDY    29  24  82 W7        30.20S WCI  22
TOLEDO EXPRESS CLOUDY    29  24  82 W7        30.20S WCI  22
TOLEDO METCALF CLOUDY    31  25  78 W10       30.21S WCI  22
LIMA           CLOUDY    30  23  75 W8        30.20F HAZE    WCI  22
$$

OHZ009>014-019>023-028>033-038-089-190700-
   NORTHEAST OHIO

CITY           SKY/WX    TMP DP  RH WIND       PRES   REMARKS
CLE-HOPKINS    LGT SNOW  29  27  92 W12       30.19S FOG     WCI  19
CLE-LAKEFRONT  LGT SNOW  32  28  85 SW16      30.16S FOG     WCI  21
CUY CO. ARPT   NOT AVBL
LORAIN-ELYRIA  CLOUDY    29  27  92 W8        30.18S FOG     WCI  21
ASHTABULA      CLOUDY    31  26  82 NW6       30.13S WCI  25
AKRON-CANTON   FRZ DRZL  29  25  85 W8        30.14F FOG     WCI  21
WOOSTER        NOT AVBL
MANSFIELD      CLOUDY    27  25  92 W7        30.16F FOG     WCI  19
YOUNGSTOWN     FRZ DRZL  28  27  96 W8        30.12S FOG     WCI  20
$$

OHZ042-051>053-060>062-070>072-077>081-190700-
  SOUTHWEST OHIO

CITY           SKY/WX    TMP DP  RH WIND       PRES   REMARKS
CINC-COVINGTON CLOUDY    28  21  75 NW5       30.24S WCI  23
CINC-LUNKEN    CLOUDY    26  22  84 NW3       30.27F
HAMILTON       CLEAR     23  21  92 W3        30.26S
DAYTON         NOT AVBL
WRIGHT-PAT AFB NOT AVBL
DAYTON GENERAL CLOUDY    28  21  75 NW5       30.22S WCI  23
WILMINGTON     CLOUDY    27  20  75 W6        30.21F WCI  20
$$

OHZ036-037-039>041-045>050-054>059-063>069-073>076-082>088-190700-
  CENTRAL AND SOUTHEAST OHIO

CITY           SKY/WX    TMP DP  RH WIND       PRES   REMARKS
COLUMBUS       CLOUDY    28  22  78 W6        30.21S WCI  22
OSU AIRPORT    CLOUDY    28  22  78 W6        30.21S WCI  22
BOLTON FIELD   NOT AVBL
RICKENBACK AFB NOT AVBL
NEWARK         CLOUDY    29  23  78 W6        30.20S WCI  23
MARION         CLOUDY    28  23  81 W8        30.20S HAZE    WCI  20
LANCASTER      CLOUDY    29  23  78 W3        30.21F
ZANESVILLE     CLOUDY    27  23  85 W3        30.19F
NEW PHILLY     CLOUDY    29  24  82 CALM      30.19S
$$


USA.gov is the U.S. government's official web portal to all federal, state and local government web resources and services.